Location: Écuvilly
(49.6505°N, 2.9206°E)
Time: 17:38:23
(UTC+00:00)

SAR-Lupe-4 - Pass Details

Date: 17 November 2025
Orbit: 476 x 483 km, 98.1° (Epoch: 03 October)

Event Time Altitude Azimuth Distance (km) Brightness Sun altitude
Rises 16:41:00 0° 149° (SSE) 2,536 7.1 -6.4°
Reaches altitude 10° 16:43:06 10° 143° (SE) 1,661 6.1 -6.7°
Maximum altitude 16:46:31 44° 70° (ENE) 681 3.9 -7.2°
Drops below altitude 10° 16:49:56 10° 358° (N) 1,671 6.1 -7.8°
Sets 16:52:03 0° 352° (N) 2,555 7.1 -8.1°
